| time (UTC) | temp F | wind direction | speed knots | gust knots | rain 1hr in | rain 24hr in | rain mn in | humidity % | barometer mb |
| 20260831030536 | 62 | 360 | 0.0 | 0.9 | 0.01 | 0.04 | 0.04 | 93 | 1018.6 |
| 20260831030036 | 62 | 296 | 0.0 | 2.6 | 0.01 | 0.04 | 0.04 | 93 | 1018.6 |
| 20260831025536 | 62 | 300 | 0.0 | 2.6 | 0.01 | 0.04 | 0.04 | 93 | 1018.7 |
| 20260831025037 | 62 | 293 | 0.0 | 1.7 | 0.00 | 0.03 | 0.03 | 93 | 1018.6 |
| 20260831024536 | 62 | 293 | 0.0 | 3.5 | 0.00 | 0.03 | 0.03 | 93 | 1018.6 |
| 20260831024038 | 62 | 293 | 0.9 | 4.3 | 0.00 | 0.03 | 0.03 | 93 | 1018.6 |
| 20260831023535 | 62 | 281 | 0.9 | 4.3 | 0.00 | 0.03 | 0.03 | 93 | 1018.6 |
| 20260831023035 | 62 | 264 | 0.0 | 5.2 | 0.00 | 0.03 | 0.03 | 93 | 1018.5 |
| 20260831022536 | 62 | 271 | 0.9 | 5.2 | 0.00 | 0.03 | 0.03 | 93 | 1018.4 |
| 20260831022035 | 62 | 298 | 1.7 | 4.3 | 0.00 | 0.03 | 0.03 | 93 | 1018.4 |
| 20260831021535 | 62 | 294 | 0.9 | 5.2 | 0.00 | 0.03 | 0.03 | 93 | 1018.5 |
| 20260831021035 | 62 | 290 | 0.0 | 4.3 | 0.00 | 0.03 | 0.03 | 93 | 1018.4 |
| 20260831020535 | 62 | 288 | 0.9 | 4.3 | 0.00 | 0.03 | 0.03 | 93 | 1018.4 |
| 20260831020035 | 62 | 293 | 1.7 | 5.2 | 0.00 | 0.03 | 0.03 | 93 | 1018.4 |
| 20260831015534 | 62 | 297 | 0.0 | 6.1 | 0.00 | 0.03 | 0.03 | 93 | 1018.3 |
| 20260831015034 | 62 | 304 | 1.7 | 6.1 | 0.00 | 0.03 | 0.03 | 93 | 1018.4 |
| 20260831014534 | 62 | 259 | 0.0 | 3.5 | 0.00 | 0.03 | 0.03 | 93 | 1018.4 |
| 20260831014034 | 62 | 269 | 0.9 | 4.3 | 0.00 | 0.03 | 0.03 | 93 | 1018.4 |
| 20260831013533 | 62 | 252 | 0.9 | 4.3 | 0.00 | 0.03 | 0.03 | 93 | 1018.5 |
| 20260831013036 | 62 | 249 | 0.0 | 3.5 | 0.00 | 0.03 | 0.03 | 93 | 1018.5 |
| 20260831012534 | 62 | 299 | 0.0 | 4.3 | 0.00 | 0.03 | 0.03 | 93 | 1018.5 |
| 20260831012034 | 62 | 304 | 0.0 | 4.3 | 0.00 | 0.03 | 0.03 | 93 | 1018.5 |
| 20260831011533 | 62 | 302 | 0.9 | 3.5 | 0.00 | 0.03 | 0.03 | 93 | 1018.5 |
| 20260831011032 | 62 | 267 | 0.9 | 4.3 | 0.00 | 0.03 | 0.03 | 93 | 1018.4 |
| 20260831010532 | 62 | 290 | 0.0 | 7.0 | 0.00 | 0.03 | 0.03 | 93 | 1018.3 |
| 20260831010053 | 62 | 306 | 0.9 | 7.0 | 0.00 | 0.03 | 0.03 | 93 | 1018.3 |
| 20260831005532 | 62 | 360 | 1.7 | 3.5 | 0.00 | 0.03 | 0.03 | 93 | 1018.2 |
| 20260831005032 | 62 | 298 | 0.9 | 4.3 | 0.00 | 0.03 | 0.03 | 93 | 1018.2 |
| 20260831004532 | 62 | 287 | 0.9 | 5.2 | 0.00 | 0.03 | 0.03 | 93 | 1018.0 |
| 20260831004032 | 62 | 292 | 1.7 | 5.2 | 0.00 | 0.03 | 0.03 | 92 | 1018.0 |
| 20260831003531 | 62 | 288 | 1.7 | 4.3 | 0.00 | 0.03 | 0.03 | 92 | 1017.9 |
| 20260831003034 | 62 | 360 | 0.9 | 3.5 | 0.00 | 0.03 | 0.03 | 92 | 1017.8 |
| 20260831002531 | 62 | 288 | 0.9 | 4.3 | 0.00 | 0.03 | 0.03 | 92 | 1017.7 |
| 20260831002031 | 62 | 296 | 1.7 | 7.0 | 0.00 | 0.03 | 0.03 | 92 | 1017.5 |
| 20260831001531 | 62 | 297 | 0.9 | 7.0 | 0.00 | 0.03 | 0.03 | 92 | 1017.4 |
| 20260831001031 | 62 | 282 | 0.9 | 3.5 | 0.00 | 0.03 | 0.03 | 92 | 1017.3 |
| 20260831000530 | 62 | 275 | 0.9 | 4.3 | 0.00 | 0.03 | 0.03 | 92 | 1017.2 |
| 20260831000030 | 62 | 266 | 1.7 | 6.1 | 0.00 | 0.03 | 0.03 | 92 | 1017.2 |
| 20260830235530 | 62 | 298 | 1.7 | 6.1 | 0.00 | 0.03 | 0.03 | 92 | 1017.0 |
| 20260830235029 | 62 | 299 | 0.0 | 4.3 | 0.00 | 0.03 | 0.03 | 92 | 1017.0 |
| 20260830234530 | 62 | 280 | 0.9 | 4.3 | 0.00 | 0.03 | 0.03 | 92 | 1017.0 |
| 20260830234029 | 62 | 360 | 0.9 | 4.3 | 0.00 | 0.03 | 0.03 | 92 | 1017.0 |
| 20260830233529 | 62 | 301 | 0.0 | 2.6 | 0.00 | 0.03 | 0.03 | 92 | 1016.9 |
| 20260830233036 | 62 | 360 | 0.9 | 3.5 | 0.00 | 0.03 | 0.03 | 92 | 1016.8 |
| 20260830232529 | 62 | 300 | 0.0 | 3.5 | 0.00 | 0.03 | 0.03 | 92 | 1016.8 |
| 20260830232028 | 62 | 308 | 0.0 | 2.6 | 0.00 | 0.03 | 0.03 | 92 | 1016.7 |
| 20260830231529 | 62 | 238 | 0.9 | 2.6 | 0.00 | 0.03 | 0.03 | 92 | 1016.7 |
| 20260830231028 | 62 | 207 | 0.0 | 1.7 | 0.00 | 0.03 | 0.03 | 92 | 1016.7 |
| 20260830230528 | 62 | 207 | 0.0 | 2.6 | 0.00 | 0.03 | 0.03 | 92 | 1016.7 |
| 20260830230028 | 62 | 287 | 0.0 | 2.6 | 0.00 | 0.03 | 0.03 | 92 | 1016.7 |
| 20260830225528 | 62 | 261 | 0.0 | 2.6 | 0.00 | 0.03 | 0.03 | 92 | 1016.7 |
| 20260830225028 | 62 | 261 | 0.9 | 2.6 | 0.00 | 0.03 | 0.03 | 92 | 1016.7 |
| 20260830224528 | 62 | 281 | 0.0 | 2.6 | 0.00 | 0.03 | 0.03 | 92 | 1016.7 |
| 20260830224028 | 62 | 269 | 0.0 | 0.0 | 0.00 | 0.03 | 0.03 | 92 | 1016.7 |
| 20260830223528 | 62 | 293 | 0.0 | 2.6 | 0.00 | 0.03 | 0.03 | 92 | 1016.8 |
| 20260830223033 | 62 | 360 | 0.0 | 3.5 | 0.01 | 0.03 | 0.03 | 92 | 1016.7 |
| 20260830222527 | 62 | 292 | 0.9 | 3.5 | 0.01 | 0.03 | 0.03 | 92 | 1016.7 |
| 20260830222027 | 62 | 360 | 0.0 | 1.7 | 0.01 | 0.03 | 0.03 | 92 | 1016.7 |
| 20260830221527 | 62 | 360 | 0.0 | 2.6 | 0.01 | 0.03 | 0.03 | 92 | 1016.8 |
| 20260830221030 | 62 | 360 | 0.9 | 2.6 | 0.01 | 0.03 | 0.03 | 91 | 1016.8 |
| 20260830220526 | 62 | 360 | 0.0 | 0.0 | 0.01 | 0.03 | 0.03 | 91 | 1016.9 |
| 20260830220026 | 62 | 360 | 0.0 | 0.0 | 0.01 | 0.03 | 0.03 | 91 | 1016.9 |
| 20260830215526 | 62 | 360 | 0.0 | 0.0 | 0.01 | 0.03 | 0.03 | 91 | 1016.9 |
| 20260830215025 | 62 | 304 | 0.0 | 0.0 | 0.02 | 0.03 | 0.03 | 91 | 1017.0 |
| 20260830214526 | 62 | 305 | 0.0 | 0.0 | 0.02 | 0.03 | 0.03 | 91 | 1016.9 |
| 20260830214025 | 62 | 305 | 0.0 | 0.0 | 0.02 | 0.03 | 0.03 | 91 | 1017.0 |
| 20260830213529 | 62 | 305 | 0.0 | 0.9 | 0.02 | 0.03 | 0.03 | 91 | 1016.9 |
| 20260830213045 | 62 | 305 | 0.0 | 2.6 | 0.01 | 0.02 | 0.02 | 91 | 1016.9 |
| 20260830212525 | 62 | 305 | 0.9 | 3.5 | 0.01 | 0.02 | 0.02 | 91 | 1017.0 |
| 20260830212025 | 62 | 305 | 1.7 | 3.5 | 0.01 | 0.02 | 0.02 | 91 | 1017.0 |
| 20260830211525 | 62 | 290 | 0.0 | 3.5 | 0.02 | 0.02 | 0.02 | 90 | 1017.0 |
| 20260830211025 | 62 | 291 | 0.9 | 3.5 | 0.02 | 0.02 | 0.02 | 90 | 1017.0 |
| 20260830210525 | 62 | 273 | 0.9 | 4.3 | 0.02 | 0.02 | 0.02 | 90 | 1017.1 |
| 20260830210026 | 62 | 302 | 1.7 | 7.8 | 0.02 | 0.02 | 0.02 | 90 | 1017.2 |
| 20260830205527 | 62 | 259 | 1.7 | 7.8 | 0.02 | 0.02 | 0.02 | 89 | 1017.2 |
| 20260830205024 | 62 | 306 | 2.6 | 7.8 | 0.01 | 0.01 | 0.01 | 89 | 1017.3 |
| 20260830204536 | 63 | 294 | 3.5 | 7.8 | 0.01 | 0.01 | 0.01 | 89 | 1017.3 |
| 20260830204023 | 63 | 282 | 3.5 | 7.8 | 0.01 | 0.01 | 0.01 | 88 | 1017.2 |
| 20260830203524 | 63 | 287 | 1.7 | 5.2 | 0.01 | 0.01 | 0.01 | 87 | 1017.2 |
| 20260830203023 | 63 | 293 | 2.6 | 8.7 | 0.01 | 0.01 | 0.01 | 86 | 1017.2 |
| 20260830202522 | 64 | 360 | 2.6 | 9.6 | 0.01 | 0.01 | 0.01 | 85 | 1017.2 |
| 20260830202022 | 65 | 360 | 5.2 | 9.6 | 0.01 | 0.01 | 0.01 | 83 | 1017.2 |
| 20260830201520 | 65 | 288 | 3.5 | 11.3 | 0.00 | 0.00 | 0.00 | 81 | 1017.1 |
| 20260830201019 | 66 | 315 | 5.2 | 11.3 | 0.00 | 0.00 | 0.00 | 78 | 1017.0 |
| 20260830200519 | 67 | 302 | 5.2 | 11.3 | 0.00 | 0.00 | 0.00 | 75 | 1016.9 |
| 20260830200019 | 68 | 295 | 7.0 | 11.3 | 0.00 | 0.00 | 0.00 | 71 | 1016.8 |
| 20260830195519 | 68 | 313 | 4.3 | 8.7 | 0.00 | 0.00 | 0.00 | 69 | 1016.8 |
| 20260830195019 | 69 | 297 | 0.9 | 7.8 | 0.00 | 0.00 | 0.00 | 68 | 1016.7 |
| 20260830194521 | 69 | 254 | 2.6 | 7.8 | 0.00 | 0.00 | 0.00 | 67 | 1016.7 |
| 20260830194020 | 69 | 277 | 3.5 | 7.0 | 0.00 | 0.00 | 0.00 | 66 | 1016.7 |
| 20260830193517 | 69 | 275 | 2.6 | 7.8 | 0.00 | 0.00 | 0.00 | 66 | 1016.8 |
| 20260830193029 | 69 | 310 | 2.6 | 7.0 | 0.00 | 0.00 | 0.00 | 67 | 1016.7 |
| 20260830192517 | 69 | 300 | 2.6 | 7.8 | 0.00 | 0.00 | 0.00 | 67 | 1016.7 |
| 20260830192018 | 69 | 279 | 3.5 | 7.8 | 0.00 | 0.00 | 0.00 | 65 | 1016.7 |
| 20260830191528 | 70 | 318 | 3.5 | 7.0 | 0.00 | 0.00 | 0.00 | 65 | 1016.7 |
| 20260830191017 | 70 | 291 | 2.6 | 5.2 | 0.00 | 0.00 | 0.00 | 65 | 1016.7 |
| 20260830190516 | 70 | 321 | 2.6 | 5.2 | 0.00 | 0.00 | 0.00 | 63 | 1016.7 |
| 20260830190016 | 71 | 303 | 1.7 | 4.3 | 0.00 | 0.00 | 0.00 | 62 | 1016.8 |
| 20260830185517 | 71 | 294 | 0.0 | 7.0 | 0.00 | 0.00 | 0.00 | 62 | 1016.8 |
| 20260830185019 | 71 | 295 | 2.6 | 7.8 | 0.00 | 0.00 | 0.00 | 61 | 1016.8 |
| 20260830184519 | 72 | 295 | 3.5 | 8.7 | 0.00 | 0.00 | 0.00 | 60 | 1016.9 |
| 20260830184014 | 72 | 298 | 4.3 | 8.7 | 0.00 | 0.00 | 0.00 | 58 | 1016.9 |
| 20260830183514 | 72 | 309 | 0.9 | 7.8 | 0.00 | 0.00 | 0.00 | 63 | 1016.9 |
| 20260830183014 | 72 | 302 | 2.6 | 4.3 | 0.00 | 0.00 | 0.00 | 60 | 1016.9 |
| 20260830182514 | 72 | 256 | 0.9 | 3.5 | 0.00 | 0.00 | 0.00 | 62 | 1016.9 |
| 20260830182013 | 72 | 322 | 0.0 | 2.6 | 0.00 | 0.00 | 0.00 | 60 | 1016.9 |
| 20260830181513 | 71 | 244 | 0.9 | 2.6 | 0.00 | 0.00 | 0.00 | 62 | 1017.0 |
| 20260830181012 | 72 | 200 | 0.0 | 4.3 | 0.00 | 0.00 | 0.00 | 61 | 1017.1 |
| 20260830180511 | 72 | 288 | 0.9 | 4.3 | 0.00 | 0.00 | 0.00 | 61 | 1017.1 |
| 20260830180015 | 72 | 179 | 1.7 | 3.5 | 0.00 | 0.00 | 0.00 | 60 | 1017.0 |
| 20260830175511 | 71 | 194 | 0.0 | 2.6 | 0.00 | 0.00 | 0.00 | 60 | 1017.0 |
| 20260830175012 | 71 | 231 | 0.0 | 3.5 | 0.00 | 0.00 | 0.00 | 61 | 1017.1 |
| 20260830174510 | 71 | 290 | 0.9 | 5.2 | 0.00 | 0.00 | 0.00 | 61 | 1017.0 |
| 20260830174008 | 71 | 316 | 1.7 | 5.2 | 0.00 | 0.00 | 0.00 | 61 | 1017.1 |
| 20260830173508 | 71 | 220 | 0.9 | 3.5 | 0.00 | 0.00 | 0.00 | 64 | 1017.0 |
| 20260830173006 | 70 | 266 | 0.0 | 3.5 | 0.00 | 0.00 | 0.00 | 61 | 1017.1 |
| 20260830172506 | 70 | 244 | 0.9 | 7.0 | 0.00 | 0.00 | 0.00 | 61 | 1017.1 |
| 20260830172006 | 70 | 248 | 2.6 | 7.0 | 0.00 | 0.00 | 0.00 | 61 | 1017.1 |
| 20260830171505 | 70 | 259 | 0.0 | 4.3 | 0.00 | 0.00 | 0.00 | 66 | 1017.3 |
| 20260830171004 | 70 | 227 | 1.7 | 4.3 | 0.00 | 0.00 | 0.00 | 64 | 1017.5 |
| 20260830170503 | 70 | 157 | 0.9 | 5.2 | 0.00 | 0.00 | 0.00 | 63 | 1017.5 |
| 20260830170001 | 70 | 223 | 0.9 | 5.2 | 0.00 | 0.00 | 0.00 | 63 | 1017.6 |
| 20260830165501 | 70 | 308 | 0.0 | 5.2 | 0.00 | 0.00 | 0.00 | 64 | 1017.7 |
| 20260830165002 | 70 | 225 | 0.0 | 5.2 | 0.00 | 0.00 | 0.00 | 65 | 1017.7 |
| 20260830164604 | 69 | 220 | 0.0 | 4.3 | 0.00 | 0.00 | 0.00 | 65 | 1017.6 |
| 20260830164059 | 69 | 67 | 0.0 | 4.3 | 0.00 | 0.00 | 0.00 | 64 | 1017.8 |
| 20260830163600 | 69 | 206 | 0.9 | 4.3 | 0.00 | 0.00 | 0.00 | 64 | 1017.9 |
| 20260830163102 | 69 | 221 | 0.9 | 5.2 | 0.00 | 0.00 | 0.00 | 62 | 1017.9 |
| 20260830162558 | 69 | 192 | 1.7 | 5.2 | 0.00 | 0.00 | 0.00 | 64 | 1017.9 |
| 20260830162058 | 70 | 66 | 0.9 | 4.3 | 0.00 | 0.00 | 0.00 | 64 | 1017.9 |
| 20260830161618 | 69 | 188 | 1.7 | 4.3 | 0.00 | 0.00 | 0.00 | 65 | 1017.9 |
| 20260830161055 | 70 | 144 | 0.9 | 7.0 | 0.00 | 0.00 | 0.00 | 63 | 1018.0 |
| 20260830160554 | 69 | 210 | 0.9 | 7.0 | 0.00 | 0.00 | 0.00 | 63 | 1018.1 |
| 20260830160054 | 69 | 125 | 0.9 | 3.5 | 0.00 | 0.00 | 0.00 | 66 | 1018.1 |
| 20260830155555 | 69 | 234 | 0.9 | 3.5 | 0.00 | 0.00 | 0.00 | 65 | 1018.2 |
| 20260830155055 | 69 | 271 | 1.7 | 5.2 | 0.00 | 0.00 | 0.00 | 66 | 1018.2 |
| 20260830154554 | 69 | 203 | 2.6 | 5.2 | 0.00 | 0.00 | 0.00 | 65 | 1018.2 |
| 20260830154054 | 69 | 200 | 1.7 | 5.2 | 0.00 | 0.00 | 0.00 | 63 | 1018.1 |
| 20260830153552 | 69 | 219 | 0.9 | 3.5 | 0.00 | 0.00 | 0.00 | 65 | 1018.2 |
| 20260830153052 | 69 | 178 | 0.0 | 6.1 | 0.00 | 0.00 | 0.00 | 63 | 1018.2 |
| 20260830152552 | 69 | 187 | 1.7 | 6.1 | 0.00 | 0.00 | 0.00 | 64 | 1018.3 |
| 20260830152051 | 69 | 209 | 1.7 | 6.1 | 0.00 | 0.00 | 0.00 | 65 | 1018.3 |
| 20260830151550 | 69 | 246 | 0.9 | 5.2 | 0.00 | 0.00 | 0.00 | 64 | 1018.4 |
| 20260830151049 | 68 | 203 | 0.0 | 4.3 | 0.00 | 0.00 | 0.00 | 66 | 1018.3 |
| 20260830150549 | 68 | 268 | 1.7 | 5.2 | 0.00 | 0.00 | 0.00 | 66 | 1018.2 |
| 20260830150112 | 68 | 217 | 2.6 | 5.2 | 0.00 | 0.00 | 0.00 | 66 | 1018.2 |
| 20260830145548 | 68 | 182 | 2.6 | 5.2 | 0.00 | 0.00 | 0.00 | 66 | 1018.3 |
| 20260830145048 | 68 | 212 | 2.6 | 5.2 | 0.00 | 0.00 | 0.00 | 64 | 1018.2 |
| 20260830144547 | 68 | 265 | 0.9 | 4.3 | 0.00 | 0.00 | 0.00 | 63 | 1018.3 |
| 20260830144046 | 68 | 201 | 0.9 | 7.0 | 0.00 | 0.00 | 0.00 | 66 | 1018.3 |
| 20260830143545 | 67 | 232 | 3.5 | 7.0 | 0.00 | 0.00 | 0.00 | 66 | 1018.3 |
| 20260830143045 | 67 | 231 | 1.7 | 6.1 | 0.00 | 0.00 | 0.00 | 68 | 1018.4 |
| 20260830142544 | 66 | 190 | 0.9 | 5.2 | 0.00 | 0.00 | 0.00 | 68 | 1018.4 |
| 20260830142042 | 66 | 241 | 0.9 | 6.1 | 0.00 | 0.00 | 0.00 | 68 | 1018.3 |
| 20260830141539 | 65 | 204 | 2.6 | 7.8 | 0.00 | 0.00 | 0.00 | 68 | 1018.4 |
| 20260830141037 | 65 | 186 | 5.2 | 9.6 | 0.00 | 0.00 | 0.00 | 67 | 1018.3 |
| 20260830140537 | 65 | 193 | 4.3 | 9.6 | 0.00 | 0.00 | 0.00 | 69 | 1018.4 |
| 20260830140038 | 64 | 126 | 4.3 | 7.0 | 0.00 | 0.00 | 0.00 | 69 | 1018.4 |
| 20260830135536 | 64 | 178 | 2.6 | 7.0 | 0.00 | 0.00 | 0.00 | 69 | 1018.5 |
| 20260830135035 | 64 | 186 | 2.6 | 7.8 | 0.00 | 0.00 | 0.00 | 70 | 1018.5 |
| 20260830134540 | 64 | 182 | 3.5 | 7.0 | 0.00 | 0.00 | 0.00 | 70 | 1018.4 |
| 20260830134033 | 63 | 160 | 3.5 | 7.8 | 0.00 | 0.00 | 0.00 | 70 | 1018.4 |
| 20260830133532 | 63 | 164 | 1.7 | 8.7 | 0.00 | 0.00 | 0.00 | 70 | 1018.5 |
| 20260830133036 | 63 | 199 | 5.2 | 8.7 | 0.00 | 0.00 | 0.00 | 69 | 1018.5 |
| 20260830132535 | 63 | 209 | 3.5 | 8.7 | 0.00 | 0.00 | 0.00 | 70 | 1018.6 |
| 20260830132030 | 63 | 159 | 5.2 | 8.7 | 0.00 | 0.00 | 0.00 | 70 | 1018.8 |
| 20260830131529 | 62 | 215 | 3.5 | 7.8 | 0.00 | 0.00 | 0.00 | 71 | 1018.8 |
| 20260830131028 | 62 | 189 | 3.5 | 7.8 | 0.00 | 0.00 | 0.00 | 71 | 1018.8 |
| 20260830130530 | 62 | 171 | 3.5 | 10.4 | 0.00 | 0.00 | 0.00 | 71 | 1018.7 |
| 20260830130027 | 62 | 155 | 4.3 | 10.4 | 0.00 | 0.00 | 0.00 | 71 | 1018.8 |
| 20260830125525 | 62 | 205 | 3.5 | 8.7 | 0.00 | 0.00 | 0.00 | 71 | 1018.7 |
| 20260830125025 | 62 | 198 | 3.5 | 7.8 | 0.00 | 0.00 | 0.00 | 72 | 1018.8 |
| 20260830124527 | 61 | 189 | 4.3 | 7.8 | 0.00 | 0.00 | 0.00 | 72 | 1018.8 |
| 20260830124026 | 61 | 195 | 3.5 | 8.7 | 0.00 | 0.00 | 0.00 | 72 | 1018.8 |
| 20260830123523 | 61 | 197 | 5.2 | 8.7 | 0.00 | 0.00 | 0.00 | 73 | 1018.9 |
| 20260830123022 | 61 | 195 | 3.5 | 10.4 | 0.00 | 0.00 | 0.00 | 74 | 1019.0 |
| 20260830122522 | 61 | 186 | 5.2 | 10.4 | 0.00 | 0.00 | 0.00 | 74 | 1019.0 |
| 20260830122021 | 61 | 213 | 4.3 | 11.3 | 0.00 | 0.00 | 0.00 | 74 | 1019.0 |
| 20260830121520 | 60 | 189 | 4.3 | 9.6 | 0.00 | 0.00 | 0.00 | 74 | 1019.0 |
| 20260830121020 | 61 | 201 | 3.5 | 9.6 | 0.00 | 0.00 | 0.00 | 74 | 1019.0 |
| 20260830120520 | 61 | 196 | 5.2 | 9.6 | 0.00 | 0.00 | 0.00 | 73 | 1019.0 |
| 20260830120022 | 61 | 188 | 4.3 | 9.6 | 0.00 | 0.00 | 0.00 | 74 | 1019.1 |
| 20260830115519 | 61 | 200 | 3.5 | 7.8 | 0.00 | 0.00 | 0.00 | 73 | 1019.1 |
| 20260830115019 | 61 | 179 | 2.6 | 8.7 | 0.00 | 0.00 | 0.00 | 73 | 1019.1 |
| 20260830114518 | 61 | 219 | 1.7 | 8.7 | 0.00 | 0.00 | 0.00 | 73 | 1019.2 |
| 20260830114018 | 61 | 193 | 3.5 | 8.7 | 0.00 | 0.00 | 0.00 | 73 | 1019.3 |
| 20260830113517 | 61 | 200 | 4.3 | 10.4 | 0.00 | 0.00 | 0.00 | 73 | 1019.3 |
| 20260830113018 | 60 | 201 | 4.3 | 8.7 | 0.00 | 0.00 | 0.00 | 74 | 1019.3 |
| 20260830112517 | 60 | 188 | 4.3 | 7.0 | 0.00 | 0.00 | 0.00 | 74 | 1019.2 |
| 20260830112017 | 60 | 196 | 3.5 | 7.0 | 0.00 | 0.00 | 0.00 | 74 | 1019.3 |
| 20260830111516 | 60 | 184 | 3.5 | 7.0 | 0.00 | 0.00 | 0.00 | 74 | 1019.3 |
| 20260830111017 | 60 | 185 | 2.6 | 6.1 | 0.00 | 0.00 | 0.00 | 74 | 1019.5 |
| 20260830110516 | 60 | 196 | 1.7 | 4.3 | 0.00 | 0.00 | 0.00 | 74 | 1019.5 |
| 20260830110016 | 60 | 196 | 1.7 | 5.2 | 0.00 | 0.00 | 0.00 | 74 | 1019.4 |
| 20260830105516 | 60 | 205 | 2.6 | 6.1 | 0.00 | 0.01 | 0.00 | 74 | 1019.4 |
| 20260830105018 | 60 | 238 | 2.6 | 6.1 | 0.00 | 0.01 | 0.00 | 74 | 1019.4 |
| 20260830104515 | 60 | 207 | 3.5 | 7.8 | 0.00 | 0.01 | 0.00 | 75 | 1019.4 |
| 20260830104015 | 60 | 196 | 2.6 | 7.8 | 0.00 | 0.01 | 0.00 | 74 | 1019.4 |
| 20260830103515 | 60 | 217 | 2.6 | 6.1 | 0.00 | 0.01 | 0.00 | 75 | 1019.4 |
| 20260830103015 | 60 | 217 | 2.6 | 7.0 | 0.00 | 0.01 | 0.00 | 75 | 1019.5 |
| 20260830102513 | 60 | 226 | 3.5 | 7.0 | 0.00 | 0.01 | 0.00 | 75 | 1019.4 |
| 20260830102013 | 60 | 188 | 2.6 | 7.8 | 0.00 | 0.01 | 0.00 | 74 | 1019.6 |
| 20260830101534 | 60 | 200 | 3.5 | 7.8 | 0.00 | 0.01 | 0.00 | 74 | 1019.5 |
| 20260830101013 | 60 | 202 | 3.5 | 7.0 | 0.00 | 0.01 | 0.00 | 74 | 1019.5 |
| 20260830100513 | 60 | 178 | 3.5 | 7.0 | 0.00 | 0.01 | 0.00 | 75 | 1019.5 |
| 20260830100013 | 60 | 165 | 0.9 | 7.0 | 0.00 | 0.01 | 0.00 | 75 | 1019.6 |
| 20260830095512 | 60 | 198 | 1.7 | 7.8 | 0.00 | 0.01 | 0.00 | 75 | 1019.6 |
| 20260830095014 | 60 | 188 | 3.5 | 7.8 | 0.00 | 0.01 | 0.00 | 75 | 1019.5 |
| 20260830094512 | 60 | 184 | 4.3 | 6.1 | 0.00 | 0.01 | 0.00 | 75 | 1019.5 |
| 20260830094011 | 60 | 196 | 3.5 | 6.1 | 0.00 | 0.01 | 0.00 | 75 | 1019.7 |
| 20260830093510 | 60 | 194 | 3.5 | 6.1 | 0.00 | 0.01 | 0.00 | 75 | 1019.8 |
| 20260830093010 | 60 | 180 | 1.7 | 4.3 | 0.00 | 0.01 | 0.00 | 75 | 1019.8 |
| 20260830092512 | 60 | 198 | 1.7 | 5.2 | 0.00 | 0.01 | 0.00 | 75 | 1019.8 |
| 20260830092010 | 60 | 178 | 1.7 | 6.1 | 0.00 | 0.01 | 0.00 | 75 | 1019.9 |
| 20260830091510 | 60 | 177 | 2.6 | 6.1 | 0.00 | 0.01 | 0.00 | 75 | 1019.8 |
| 20260830091009 | 60 | 205 | 1.7 | 5.2 | 0.00 | 0.01 | 0.00 | 75 | 1019.8 |
| 20260830090509 | 60 | 204 | 2.6 | 5.2 | 0.00 | 0.01 | 0.00 | 75 | 1019.7 |
| 20260830090027 | 59 | 167 | 1.7 | 7.8 | 0.00 | 0.01 | 0.00 | 75 | 1019.7 |
| 20260830085508 | 59 | 195 | 2.6 | 7.8 | 0.00 | 0.01 | 0.00 | 76 | 1019.8 |
| 20260830085009 | 59 | 200 | 4.3 | 7.0 | 0.00 | 0.01 | 0.00 | 76 | 1019.8 |
| 20260830084521 | 59 | 177 | 3.5 | 6.1 | 0.00 | 0.01 | 0.00 | 76 | 1019.8 |
| 20260830084008 | 59 | 179 | 2.6 | 7.8 | 0.00 | 0.01 | 0.00 | 76 | 1020.0 |
| 20260830083511 | 59 | 195 | 2.6 | 7.0 | 0.00 | 0.01 | 0.00 | 76 | 1020.0 |
| 20260830083025 | 59 | 250 | 3.5 | 7.8 | 0.00 | 0.01 | 0.00 | 76 | 1020.0 |
| 20260830082508 | 59 | 174 | 3.5 | 8.7 | 0.00 | 0.01 | 0.00 | 75 | 1020.0 |
| 20260830082011 | 59 | 184 | 3.5 | 8.7 | 0.00 | 0.01 | 0.00 | 75 | 1019.9 |
| 20260830081507 | 59 | 179 | 3.5 | 8.7 | 0.00 | 0.01 | 0.00 | 75 | 1019.8 |
| 20260830081006 | 59 | 197 | 3.5 | 7.8 | 0.00 | 0.01 | 0.00 | 75 | 1019.9 |
| 20260830080509 | 60 | 196 | 2.6 | 6.1 | 0.00 | 0.01 | 0.00 | 75 | 1019.9 |
| 20260830080006 | 60 | 190 | 3.5 | 8.7 | 0.00 | 0.01 | 0.00 | 75 | 1019.9 |
| 20260830075506 | 60 | 198 | 2.6 | 8.7 | 0.00 | 0.01 | 0.00 | 75 | 1020.0 |
| 20260830075006 | 60 | 158 | 3.5 | 9.6 | 0.00 | 0.01 | 0.00 | 75 | 1020.1 |
| 20260830074506 | 60 | 199 | 3.5 | 9.6 | 0.00 | 0.01 | 0.00 | 75 | 1020.1 |
| 20260830074007 | 60 | 173 | 2.6 | 7.0 | 0.00 | 0.01 | 0.00 | 74 | 1020.0 |
| 20260830073505 | 60 | 186 | 2.6 | 8.7 | 0.00 | 0.01 | 0.00 | 74 | 1020.0 |
| 20260830073006 | 60 | 189 | 4.3 | 8.7 | 0.00 | 0.01 | 0.00 | 74 | 1020.0 |
| 20260830072504 | 60 | 187 | 2.6 | 8.7 | 0.00 | 0.01 | 0.00 | 75 | 1019.9 |
| 20260830072004 | 60 | 148 | 4.3 | 8.7 | 0.00 | 0.01 | 0.00 | 74 | 1019.9 |
| 20260830071503 | 60 | 192 | 4.3 | 7.8 | 0.00 | 0.01 | 0.00 | 73 | 1020.0 |
| 20260830071003 | 60 | 156 | 4.3 | 8.7 | 0.00 | 0.01 | 0.00 | 73 | 1020.0 |
| 20260830070502 | 60 | 150 | 3.5 | 8.7 | 0.00 | 0.01 | 0.00 | 74 | 1020.0 |
| 20260830070002 | 60 | 188 | 4.3 | 7.8 | 0.00 | 0.01 | 0.00 | 74 | 1020.0 |
| 20260830065503 | 60 | 189 | 1.7 | 5.2 | 0.00 | 0.01 | 0.00 | 74 | 1019.8 |
| 20260830065002 | 60 | 194 | 2.6 | 5.2 | 0.00 | 0.01 | 0.00 | 75 | 1019.8 |
| 20260830064502 | 59 | 200 | 1.7 | 4.3 | 0.00 | 0.01 | 0.00 | 75 | 1019.9 |
| 20260830064004 | 59 | 188 | 2.6 | 4.3 | 0.00 | 0.01 | 0.00 | 76 | 1019.8 |
| 20260830063502 | 59 | 194 | 0.9 | 5.2 | 0.00 | 0.01 | 0.00 | 76 | 1019.8 |
| 20260830063002 | 59 | 213 | 2.6 | 5.2 | 0.00 | 0.01 | 0.00 | 76 | 1019.8 |
| 20260830062503 | 59 | 194 | 1.7 | 5.2 | 0.00 | 0.01 | 0.00 | 76 | 1019.8 |
| 20260830062002 | 59 | 213 | 1.7 | 5.2 | 0.00 | 0.01 | 0.00 | 76 | 1019.9 |
| 20260830061501 | 59 | 200 | 1.7 | 6.1 | 0.00 | 0.01 | 0.00 | 76 | 1019.9 |
| 20260830061102 | 59 | 207 | 2.6 | 6.1 | 0.00 | 0.01 | 0.00 | 76 | 1019.9 |
| 20260830060559 | 59 | 197 | 2.6 | 7.0 | 0.00 | 0.01 | 0.00 | 75 | 1019.9 |
| 20260830060058 | 59 | 191 | 3.5 | 7.0 | 0.00 | 0.01 | 0.00 | 75 | 1020.0 |
| 20260830055600 | 59 | 171 | 3.5 | 7.8 | 0.00 | 0.01 | 0.00 | 75 | 1020.0 |
| 20260830055058 | 59 | 190 | 4.3 | 8.7 | 0.00 | 0.01 | 0.00 | 75 | 1020.0 |
| 20260830054612 | 59 | 219 | 5.2 | 8.7 | 0.00 | 0.01 | 0.00 | 75 | 1020.1 |
| 20260830054056 | 59 | 187 | 3.5 | 9.6 | 0.00 | 0.01 | 0.00 | 75 | 1020.2 |
| 20260830053557 | 59 | 192 | 4.3 | 8.7 | 0.00 | 0.01 | 0.00 | 75 | 1020.2 |
| 20260830053058 | 59 | 198 | 4.3 | 9.6 | 0.00 | 0.01 | 0.00 | 75 | 1020.3 |
| 20260830052555 | 59 | 153 | 4.3 | 9.6 | 0.00 | 0.01 | 0.00 | 75 | 1020.4 |
| 20260830052055 | 59 | 198 | 5.2 | 9.6 | 0.00 | 0.01 | 0.00 | 75 | 1020.4 |
| 20260830051554 | 59 | 169 | 5.2 | 9.6 | 0.00 | 0.01 | 0.00 | 75 | 1020.5 |
| 20260830051055 | 59 | 190 | 5.2 | 9.6 | 0.00 | 0.01 | 0.00 | 74 | 1020.5 |
| 20260830050552 | 59 | 189 | 5.2 | 9.6 | 0.00 | 0.01 | 0.00 | 73 | 1020.5 |
| 20260830050053 | 60 | 209 | 4.3 | 9.6 | 0.00 | 0.01 | 0.00 | 72 | 1020.5 |
| 20260830045551 | 60 | 175 | 4.3 | 8.7 | 0.00 | 0.01 | 0.00 | 71 | 1020.5 |
| 20260830045048 | 60 | 188 | 2.6 | 10.4 | 0.00 | 0.01 | 0.00 | 71 | 1020.5 |
| 20260830044609 | 60 | 148 | 3.5 | 10.4 | 0.00 | 0.01 | 0.00 | 70 | 1020.4 |
| 20260830044047 | 60 | 208 | 5.2 | 7.8 | 0.00 | 0.01 | 0.00 | 70 | 1020.4 |
| 20260830043546 | 61 | 209 | 5.2 | 8.7 | 0.00 | 0.01 | 0.00 | 70 | 1020.3 |
| 20260830043048 | 61 | 217 | 5.2 | 8.7 | 0.00 | 0.01 | 0.00 | 69 | 1020.2 |
| 20260830042547 | 60 | 183 | 4.3 | 8.7 | 0.00 | 0.01 | 0.00 | 70 | 1020.3 |
| 20260830042045 | 60 | 182 | 4.3 | 7.8 | 0.00 | 0.01 | 0.00 | 70 | 1020.2 |
| 20260830041602 | 60 | 154 | 3.5 | 7.8 | 0.00 | 0.01 | 0.00 | 70 | 1020.1 |
| 20260830041043 | 60 | 200 | 2.6 | 6.1 | 0.00 | 0.01 | 0.00 | 70 | 1020.1 |
| 20260830040543 | 60 | 194 | 3.5 | 6.1 | 0.00 | 0.01 | 0.00 | 70 | 1020.1 |
| 20260830040040 | 61 | 183 | 3.5 | 6.1 | 0.00 | 0.01 | 0.00 | 70 | 1020.1 |
| 20260830035540 | 61 | 188 | 2.6 | 6.1 | 0.00 | 0.01 | 0.01 | 70 | 1020.1 |
| 20260830035040 | 60 | 200 | 2.6 | 6.1 | 0.00 | 0.01 | 0.01 | 70 | 1020.2 |
| 20260830034553 | 60 | 202 | 1.7 | 6.1 | 0.00 | 0.01 | 0.01 | 70 | 1020.1 |
| 20260830034040 | 60 | 192 | 1.7 | 6.1 | 0.00 | 0.01 | 0.01 | 71 | 1020.2 |
| 20260830033539 | 60 | 198 | 1.7 | 6.1 | 0.00 | 0.01 | 0.01 | 71 | 1020.3 |
| 20260830033040 | 60 | 182 | 0.0 | 4.3 | 0.00 | 0.01 | 0.01 | 72 | 1020.3 |
| 20260830032539 | 60 | 190 | 0.0 | 3.5 | 0.00 | 0.01 | 0.01 | 71 | 1020.3 |
| 20260830032039 | 60 | 189 | 0.9 | 4.3 | 0.00 | 0.01 | 0.01 | 71 | 1020.3 |
| 20260830031539 | 60 | 189 | 0.9 | 5.2 | 0.00 | 0.01 | 0.01 | 71 | 1020.3 |
| 20260830031039 | 60 | 175 | 1.7 | 5.2 | 0.00 | 0.01 | 0.01 | 71 | 1020.3 |